Change the Weather History Date:

Friday, January 10, 2014

  Actual Average (KTUL) Record (KTUL)
Temperature  
Mean Temperature 48 °F 37 °F  
Max Temperature 60 °F 47 °F 76 °F (1990)
Min Temperature 35 °F 27 °F -5 °F (1977)
Degree Days  
Heating Degree Days 18 28  
Month to date heating degree days 280  
Since 1 July heating degree days 1708  
Moisture  
Dew Point 41 °F    
Average Humidity 88    
Maximum Humidity 100    
Minimum Humidity 44    
Precipitation  
Precipitation 0.02 in 0.04 in 1.70 in (1922)
Month to date precipitation 0.53  
Year to date precipitation 0.53  
Sea Level Pressure  
Sea Level Pressure 29.78 in    
Wind  
Wind Speed 6 mph (SSW)    
Max Wind Speed 14 mph    
Max Gust Speed 23 mph    
Visibility 6 miles    
Events Fog , Rain    
T = Trace of Precipitation, MM = Missing Value Source: NWS Daily Summary

Daily Weather History Graph

Daily Weather History Graph

Search for Another Location

Airport or City:

Trip Planner

Search our weather history database for the weather conditions in past years. The results will help you decide how hot, cold, wet, or windy it might be!

Date:

Astronomy

Jan. 10, 2014 Rise Set
Actual Time 7:34 AM CST 5:28 PM CST
Civil Twilight 7:06 AM CST 5:56 PM CST
Nautical Twilight 6:35 AM CST 6:28 PM CST
Astronomical Twilight 6:04 AM CST 6:59 PM CST
Moon 1:30 PM CST (1/10) 2:46 AM CST (1/10)
Length of Visible Light 10h 49m
Length of Day
9h 53m
Waxing Gibbous, 75% of the Moon is Illuminated
Jan 10
Waxing Gibbous
Jan 15
Full
Jan 23
Last Quarter
Jan 30
New
Feb 6
First Quarter

Hourly Weather History & Observations

Time (CST) Temp. Windchill Dew Point Humidity Pressure Visibility Wind Dir Wind Speed Gust Speed Precip Events Conditions
12:21 AM 35.6 °F 29.9 °F 35.6 °F 100% 30.00 in 2.5 mi South 6.9 mph - N/A   Overcast
12:36 AM 35.6 °F 30.7 °F 35.6 °F 100% 30.00 in 3.0 mi South 5.8 mph - N/A   Overcast
12:51 AM 35.6 °F 30.7 °F 35.6 °F 100% 29.98 in 2.5 mi South 5.8 mph - N/A   Overcast
12:53 AM 36.0 °F 30.3 °F 36.0 °F 100% 30.01 in 2.5 mi South 6.9 mph - N/A   Overcast
1:11 AM 37.4 °F 32.8 °F 35.6 °F 93% 29.97 in 1.8 mi South 5.8 mph - N/A   Overcast
1:46 AM 37.4 °F 32.8 °F 35.6 °F 93% 29.95 in 2.0 mi South 5.8 mph - N/A   Overcast
1:53 AM 37.0 °F 33.3 °F 36.0 °F 96% 29.98 in 2.5 mi South 4.6 mph - N/A   Overcast
2:51 AM 37.4 °F 32.8 °F 35.6 °F 93% 29.92 in 4.0 mi South 5.8 mph - 0.01 in   Overcast
2:53 AM 37.0 °F 31.6 °F 36.0 °F 96% 29.95 in 4.0 mi South 6.9 mph - 0.01 in   Overcast
3:09 AM 37.4 °F 31.4 °F 35.6 °F 93% 29.91 in 1.8 mi SSE 8.1 mph - N/A   Overcast
3:38 AM 37.4 °F 33.8 °F 35.6 °F 93% 29.89 in 0.8 mi South 4.6 mph - N/A   Overcast
3:53 AM 37.0 °F 32.4 °F 36.0 °F 96% 29.91 in 0.8 mi South 5.8 mph - 0.00 in Rain Light Rain
4:13 AM 37.4 °F 32.1 °F 37.4 °F 100% 29.87 in 0.5 mi South 6.9 mph - 0.00 in Fog Fog
4:53 AM 37.0 °F 33.3 °F 37.0 °F 100% 29.88 in 0.5 mi SSE 4.6 mph - 0.00 in Fog Fog
5:53 AM 37.9 °F 33.5 °F 37.9 °F 100% 29.85 in 0.5 mi South 5.8 mph - N/A Fog Fog
6:53 AM 39.9 °F 35.8 °F 39.0 °F 97% 29.83 in 0.5 mi SSE 5.8 mph - N/A Fog Fog
7:23 AM 39.2 °F 35.9 °F 39.2 °F 100% 29.79 in 0.8 mi SSE 4.6 mph - N/A   Mist
7:45 AM 41.0 °F 37.1 °F 39.2 °F 93% 29.76 in 0.5 mi SSE 5.8 mph - N/A Fog Fog
7:53 AM 41.0 °F 39.0 °F 41.0 °F 100% 29.77 in 0.5 mi SSE 3.5 mph - N/A Fog Fog
8:53 AM 45.0 °F 42.6 °F 44.1 °F 97% 29.78 in 0.2 mi South 4.6 mph - 0.00 in Fog , Rain Light Rain
9:08 AM 46.4 °F - 44.6 °F 93% 29.75 in 1.0 mi Calm Calm - 0.00 in Rain Light Rain
9:12 AM 46.4 °F 44.3 °F 46.4 °F 100% 29.75 in 3.0 mi South 4.6 mph - 0.00 in Rain Light Rain
9:53 AM 46.9 °F - 46.9 °F 100% 29.78 in 9.0 mi Calm Calm - 0.00 in   Overcast
10:04 AM 48.2 °F - 46.4 °F 93% 29.76 in 9.0 mi Calm Calm - N/A   Overcast
10:20 AM 48.2 °F - 46.4 °F 93% 29.76 in 9.0 mi Calm Calm - N/A   Overcast
10:53 AM 52.0 °F - 51.1 °F 97% 29.74 in 10.0 mi South 11.5 mph - 0.01 in   Overcast
11:16 AM 53.6 °F - 50.0 °F 88% 29.71 in 10.0 mi SSW 11.5 mph - N/A   Overcast
11:53 AM 54.0 °F - 51.1 °F 90% 29.68 in 10.0 mi South 13.8 mph 20.7 mph N/A   Overcast
12:31 PM 55.4 °F - 51.8 °F 88% 29.63 in 10.0 mi South 9.2 mph - N/A   Overcast
12:53 PM 55.9 °F - 53.1 °F 90% 29.65 in 10.0 mi SW 5.8 mph - N/A   Overcast
1:18 PM 57.2 °F - 53.6 °F 88% 29.61 in 10.0 mi SW 6.9 mph - N/A   Scattered Clouds
1:53 PM 57.9 °F - 52.0 °F 81% 29.61 in 10.0 mi SW 4.6 mph - N/A   Scattered Clouds
2:04 PM 57.2 °F - 51.8 °F 82% 29.59 in 10.0 mi South 5.8 mph - N/A   Mostly Cloudy
2:27 PM 57.2 °F - 53.6 °F 88% 29.58 in 10.0 mi WSW 3.5 mph - N/A   Scattered Clouds
2:53 PM 59.0 °F - 52.0 °F 78% 29.59 in 10.0 mi West 3.5 mph - N/A   Overcast
3:26 PM 59.0 °F - 48.2 °F 67% 29.59 in 10.0 mi Variable 3.5 mph - N/A   Overcast
3:53 PM 60.1 °F - 46.0 °F 60% 29.62 in 10.0 mi West 6.9 mph - N/A   Mostly Cloudy
4:53 PM 57.0 °F - 35.1 °F 44% 29.66 in 10.0 mi WNW 8.1 mph 23.0 mph N/A   Clear
5:53 PM 48.9 °F - 34.0 °F 56% 29.69 in 10.0 mi West 3.5 mph - N/A   Clear
6:53 PM 43.0 °F - 33.1 °F 68% 29.71 in 10.0 mi Calm Calm - N/A   Clear
7:53 PM 39.0 °F - 33.1 °F 79% 29.73 in 10.0 mi Calm Calm - N/A   Clear
8:53 PM 37.0 °F 34.5 °F 32.0 °F 82% 29.74 in 10.0 mi WSW 3.5 mph - N/A   Clear
9:53 PM 35.1 °F 32.2 °F 30.9 °F 85% 29.75 in 10.0 mi WSW 3.5 mph - N/A   Clear
10:53 PM 36.0 °F 32.1 °F 30.0 °F 79% 29.76 in 10.0 mi West 4.6 mph - N/A   Clear
11:53 PM 44.1 °F 40.8 °F 28.0 °F 53% 29.77 in 10.0 mi WNW 5.8 mph - N/A   Clear